Terug naar catalogus

STARLINK-36308

ActiefCommunicatieVLEO
NORAD 68543·PAYLOAD·🇺🇸 United States

Gelanceerd Apr 2, 2026 vanaf Cape Canaveral Space Force Station

Loading…

Volgende Passages (komende 24 uur)

TLE

VersSource: CelesTrak SupGP

Epoch: Sep 14, 2026, 21:13 UTC

1 68543C 26070B   26257.88451389  .00018592  00000+0  54905-3 0  2576
2 68543  53.1590 200.2322 0001332  89.1703 197.0250 15.34396053    13

Volg STARLINK-36308 in realtime met AllMySat

Download on the App Store